[[{"header":{"parameterUnit":"m.s-1","parameterCategory":2,"la1":30.2991,"la2":30.254,"lo1":-89.0895,"lo2":-89.0444,"dy":0.0017,"dx":0.0017,"nx":28,"ny":28,"refTime":"2023-08-12T03:00:00:Z","depth":"0","parameterNumber":2,"parameterNumberName":"U-component_of_CURRENTS"},"data":[0,0,0,0,0,0,0,0,0,0,0,0,0,0,0,0,0,0,0,0,0,0,0,0,0,0,0,0,0,0,0,0,0,0,0,0,0,0,0,0,0,0,0,0,0,0,0,0,0,0,0,0,0,0,0,0,0,0,0.4504,0.4506,0,0.457,0.457,0.4569,0.4502,0.4501,0.45,0.4499,0.4541,0.4543,0.4546,0,0,0,0,0,0,0,0,0,0,0,0,0,0.4245,0.4249,0.4504,0.4506,0.4509,0.4571,0.457,0.4569,0.4503,0.4501,0.45,0.4498,0.4541,0.4543,0.4546,0,0,0,0,0,0,0,0,0,0,0,0,0,0.4324,0.4251,0.4504,0.4494,0.4495,0.4571,0.457,0.4569,0.4503,0.4501,0.4499,0.4498,0.454,0.4543,0.4546,0.4602,0,0,0.4556,0.4558,0,0,0,0,0,0,0,0,0.432,0.4332,0.4494,0.4495,0.4497,0.454,0.4495,0.4584,0.4503,0.4483,0.4499,0.4497,0.4551,0.4553,0.4547,0.4604,0.4606,0.4557,0.4559,0.456,0.4561,0,0,0,0,0,0,0,0.4315,0.4328,0.4514,0.4497,0.4499,0.4463,0.4471,0.451,0.4513,0.4485,0.4484,0.4517,0.4549,0.4544,0.4548,0.4606,0.4557,0.4559,0.4562,0.4563,0.4855,0.4861,0,0,0,0,0,0,0.4346,0.4325,0.4512,0.4518,0.442,0.447,0.4479,0.4515,0.4513,0.4516,0.4519,0.4514,0.4539,0.4544,0.4549,0.4679,0.456,0.4563,0.4565,0.485,0.4857,0.4863,0,0,0,0,0,0,0.434,0.4362,0.451,0.4434,0.4453,0.4479,0.4519,0.4518,0.454,0.4542,0.4541,0.4548,0.4538,0.4544,0.4616,0.4678,0.4565,0.4568,0.4843,0.4852,0.486,0.4898,0,0,0,0,0,0,0.4332,0.4359,0.4388,0.4437,0.4459,0.4611,0.4522,0.4521,0.457,0.4564,0.4567,0.4567,0.4537,0.4612,0.4619,0.468,0.457,0.4836,0.4847,0.4857,0.489,0.4907,0.4922,0,0,0,0,0,0.4322,0.4403,0.4389,0.4412,0.4501,0.4617,0.4625,0.4623,0.4574,0.4625,0.4605,0.4568,0.4687,0.4618,0.4626,0.4689,0.483,0.4844,0.4856,0.4883,0.4904,0.4922,0,0,0,0,0,0,0.4331,0.4407,0.4392,0.4495,0.4569,0.4613,0.4668,0.4653,0.4674,0.4662,0.462,0.4623,0.4725,0.4724,0.4649,0.4821,0.4764,0.4779,0.4781,0.4801,0.4817,0.4782,0.4573,0,0,0,0,0,0.4344,0.4412,0.4482,0.4574,0.4613,0.4635,0.4676,0.4685,0.4718,0.4723,0.4716,0.4736,0.4786,0.4802,0.4857,0.4929,0.492,0.4992,0.5008,0.5021,0.5009,0.5078,0.5096,0.4906,0.4906,0.4905,0,0,0.438,0.4431,0.4471,0.4579,0.4621,0.4711,0.4654,0.4755,0.4802,0.4731,0.4786,0.4805,0.4831,0.4914,0.496,0.491,0.5075,0.5038,0.5047,0.5028,0.5093,0.511,0.5125,0.4915,0.4913,0.4912,0,0,0.4533,0.4529,0.4651,0.4706,0.4806,0.4801,0.4843,0.4901,0.4895,0.4965,0.4932,0.4976,0.5045,0.5054,0.507,0.5222,0.5178,0.5271,0.5286,0.5354,0.5367,0.5379,0.5375,0.5386,0.5252,0.5252,0.5252,0,0.4577,0.4692,0.4712,0.4841,0.4854,0.485,0.4942,0.4974,0.5038,0.5004,0.5007,0.5072,0.5106,0.5159,0.5215,0.525,0.5258,0.5186,0.5365,0.5377,0.5388,0.5381,0.5393,0.5255,0.5255,0.5255,0.5254,0,0.4836,0.4881,0.4961,0.5066,0.5103,0.5181,0.5203,0.5217,0.5175,0.5163,0.5208,0.5245,0.5251,0.531,0.5301,0.5404,0.5374,0.5387,0.5285,0.5407,0.5395,0.5406,0.526,0.5259,0.5258,0.5257,0,0,0.5018,0.5108,0.5123,0.5107,0.518,0.5214,0.5274,0.5267,0.5231,0.53,0.5265,0.5379,0.5341,0.5365,0.5378,0.5439,0.5535,0.5444,0.5446,0.5386,0.5638,0.5373,0.5359,0.5574,0.5577,0.5579,0.5587,0,0.5181,0.5332,0.5348,0.5409,0.5435,0.5371,0.5387,0.5375,0.5336,0.5316,0.5333,0.5355,0.5384,0.538,0.5454,0.5516,0.5571,0.5528,0.5576,0.5576,0.5281,0.5366,0.5034,0.4993,0.5598,0.56,0.5601,0,0.5409,0.5431,0.5507,0.5404,0.5412,0.5448,0.5316,0.5348,0.5319,0.529,0.5299,0.5312,0.5389,0.5425,0.5556,0.5525,0.5594,0.5646,0.5648,0.5386,0.5332,0.4982,0.499,0.4845,0.5617,0.5616,0.5615,0,0.542,0.5496,0.5482,0.5484,0.545,0.5412,0.537,0.532,0.5277,0.5281,0.5247,0.5322,0.5347,0.5474,0.5566,0.5577,0.5702,0.5723,0.5544,0.5524,0.5239,0.5187,0.5057,0.5848,0.5848,0.5848,0.5848,0,0.5502,0.5488,0.5473,0.5466,0.5393,0.5386,0.5302,0.527,0.5235,0.5175,0.5235,0.5216,0.5375,0.5441,0.5557,0.5539,0.5691,0.5537,0.5515,0.5242,0.5193,0.505,0.5071,0.5848,0.5848,0.5848,0.5848,0,0.5494,0.5511,0.548,0.5426,0.5402,0.5344,0.5252,0.5188,0.5175,0.5116,0.5122,0.5152,0.5183,0.5299,0.5468,0.546,0.5342,0.5505,0.5124,0.5053,0.4656,0.4693,0.4422,0.4335,0.5256,0.5249,0.5244,0,0.5481,0.5477,0.5429,0.5389,0.5359,0.5279,0.5207,0.5164,0.5102,0.5056,0.5022,0.5028,0.4965,0.5031,0.5031,0.5074,0.509,0.4811,0.4767,0.4556,0.4589,0.4502,0.4448,0.4424,0.4412,0.4403,0.4395,0,0.541,0.5412,0.5377,0.5299,0.5232,0.514,0.505,0.4996,0.4935,0.488,0.4774,0.4723,0.4658,0.4464,0.4477,0.4511,0.4497,0.4606,0.4525,0.4014,0.378,0.3708,0.4476,0.431,0.4318,0.4325,0.4329,0.4333,0.533,0.5281,0.5237,0.516,0.5082,0.496,0.4823,0.4745,0.4615,0.4411,0.4522,0.4263,0.4063,0.3948,0.3957,0.3662,0.387,0.3547,0.3639,0.359,0.3391,0.3907,0.3627,0.3632,0.3636,0.3639,0.3642,0,0.5169,0.5143,0.5076,0.4944,0.4803,0.4819,0.4659,0.447,0.4251,0.409,0.3949,0.354,0.3279,0.3139,0.2882,0.275,0.2722,0.2697,0.2558,0.259,0.3138,0.2982,0.2379,0.2379,0.2379,0.2379,0.2379,0.238,0.5082,0.4973,0.4949,0.4691,0.4597,0.4296,0.4176,0.393,0.3728,0.3261,0.2906,0.2799,0.2649,0.2416,0.2165,0.213,0.2091,0.1867,0.2084,0.2512,0.26,0.2685,0.2538,0.1851,0.1851,0.1328,0.1324,0.1321]},{"header":{"parameterUnit":"m.s-1","parameterCategory":2,"la1":30.2991,"la2":30.254,"lo1":-89.0895,"lo2":-89.0444,"dy":0.0017,"dx":0.0017,"nx":28,"ny":28,"refTime":"2023-08-12T03:00:00:Z","depth":"0","parameterNumber":3,"parameterNumberName":"V-component_of_CURRENTS"},"data":[0,0,0,0,0,0,0,0,0,0,0,0,0,0,0,0,0,0,0,0,0,0,0,0,0,0,0,0,0,0,0,0,0,0,0,0,0,0,0,0,0,0,0,0,0,0,0,0,0,0,0,0,0,0,0,0,0,0,0.073,0.073,0,0.082,0.0821,0.0822,0.083,0.0828,0.0827,0.0825,0.0924,0.0928,0.0932,0,0,0,0,0,0,0,0,0,0,0,0,0,0.0654,0.0656,0.073,0.073,0.0731,0.0819,0.0821,0.0823,0.083,0.0828,0.0826,0.0825,0.0923,0.0927,0.0932,0,0,0,0,0,0,0,0,0,0,0,0,0,0.0714,0.0656,0.073,0.0742,0.0743,0.0819,0.0821,0.0823,0.083,0.0828,0.0826,0.0824,0.0921,0.0927,0.0933,0.1013,0,0,0.0951,0.0954,0,0,0,0,0,0,0,0,0.0711,0.0718,0.0739,0.0741,0.0743,0.0807,0.083,0.0885,0.0831,0.0803,0.0825,0.0823,0.0884,0.0893,0.0922,0.1017,0.1021,0.0952,0.0955,0.0958,0.0959,0,0,0,0,0,0,0,0.0707,0.0714,0.077,0.074,0.0742,0.0773,0.0779,0.0842,0.0858,0.0805,0.0804,0.0807,0.0885,0.0916,0.0924,0.1023,0.0951,0.0957,0.096,0.0963,0.1187,0.1189,0,0,0,0,0,0,0.0683,0.071,0.0767,0.0773,0.0716,0.0775,0.0782,0.0793,0.0857,0.0864,0.0809,0.0807,0.0907,0.0917,0.0927,0.1046,0.0958,0.0963,0.0967,0.1185,0.1188,0.119,0,0,0,0,0,0,0.0682,0.0688,0.0764,0.0739,0.075,0.0777,0.079,0.0795,0.0826,0.0859,0.0866,0.0833,0.0905,0.0919,0.0995,0.1048,0.0966,0.0971,0.1182,0.1186,0.1189,0.127,0,0,0,0,0,0,0.0679,0.0687,0.0699,0.0738,0.075,0.083,0.0792,0.0798,0.0829,0.0828,0.0883,0.089,0.0905,0.0986,0.1001,0.1055,0.0976,0.1179,0.1184,0.1188,0.1264,0.1276,0.1286,0,0,0,0,0,0.0677,0.0707,0.0699,0.0706,0.0762,0.0832,0.0845,0.0859,0.0832,0.0874,0.0897,0.0888,0.1024,0.0994,0.101,0.1067,0.1177,0.1182,0.1187,0.1259,0.1274,0.1286,0,0,0,0,0,0,0.0682,0.0711,0.0704,0.074,0.0787,0.0832,0.0867,0.0869,0.0923,0.0916,0.0931,0.0943,0.1029,0.1039,0.1004,0.1143,0.1096,0.1105,0.1145,0.1158,0.1169,0.1198,0.0981,0,0,0,0,0,0.0686,0.072,0.075,0.0787,0.0804,0.0835,0.0864,0.0879,0.0921,0.0941,0.0978,0.1015,0.1069,0.1102,0.1154,0.1241,0.1236,0.1284,0.1294,0.1303,0.1338,0.1392,0.1411,0.1208,0.1208,0.1208,0,0,0.0701,0.072,0.074,0.0791,0.0822,0.089,0.085,0.0908,0.0972,0.0947,0.1048,0.1064,0.11,0.1192,0.1231,0.1205,0.1347,0.131,0.1318,0.1349,0.14,0.1419,0.1437,0.1212,0.1211,0.121,0,0,0.0762,0.0762,0.0815,0.086,0.091,0.0937,0.0953,0.1009,0.1039,0.1132,0.1122,0.1177,0.1262,0.1305,0.1331,0.1439,0.1403,0.1438,0.1523,0.1574,0.1591,0.1606,0.157,0.1581,0.1442,0.1442,0.1442,0,0.0774,0.0835,0.0847,0.0916,0.0951,0.0959,0.103,0.1086,0.1165,0.1197,0.1176,0.1303,0.1328,0.1436,0.1466,0.1469,0.1454,0.1467,0.1588,0.1604,0.1618,0.1577,0.1589,0.1446,0.1446,0.1445,0.1445,0,0.0884,0.093,0.0969,0.105,0.1102,0.1163,0.122,0.128,0.1296,0.1339,0.1441,0.1481,0.1547,0.1561,0.1552,0.1665,0.1602,0.1593,0.1553,0.1643,0.1593,0.1604,0.1453,0.1451,0.145,0.1449,0,0,0.0897,0.1018,0.103,0.1068,0.1164,0.121,0.1324,0.1412,0.1469,0.155,0.1638,0.1727,0.1719,0.175,0.1743,0.1793,0.1855,0.1738,0.1739,0.1697,0.1902,0.1799,0.1799,0.1861,0.1864,0.1867,0.1804,0,0.0967,0.1095,0.1146,0.1261,0.1314,0.136,0.1456,0.154,0.1601,0.17,0.1751,0.1833,0.18,0.1819,0.1876,0.1876,0.1897,0.1869,0.1827,0.1825,0.1721,0.1816,0.1693,0.1624,0.1814,0.1816,0.1817,0,0.1045,0.1111,0.1229,0.1323,0.1349,0.1423,0.1528,0.1622,0.1758,0.1806,0.1902,0.1938,0.2042,0.199,0.2051,0.2028,0.1979,0.1963,0.1959,0.1858,0.1747,0.1578,0.1636,0.155,0.1833,0.1832,0.1831,0,0.102,0.1156,0.1235,0.1277,0.1404,0.1449,0.1514,0.1641,0.1724,0.1874,0.1949,0.2056,0.2119,0.2128,0.2097,0.2077,0.2133,0.2092,0.1944,0.193,0.1819,0.1792,0.1797,0.2132,0.2132,0.2132,0.2132,0,0.1056,0.1115,0.1219,0.1262,0.1343,0.1427,0.1529,0.1616,0.1763,0.1893,0.1989,0.2112,0.2166,0.2205,0.2145,0.2079,0.2163,0.1986,0.1941,0.1835,0.1811,0.1725,0.1706,0.2129,0.213,0.213,0.2131,0,0.103,0.1108,0.1186,0.1298,0.1334,0.1385,0.153,0.162,0.1745,0.1927,0.1984,0.2167,0.2225,0.2214,0.2223,0.2128,0.2003,0.201,0.1838,0.1776,0.1552,0.1541,0.153,0.1519,0.1846,0.1843,0.1841,0,0.1043,0.1077,0.1186,0.1235,0.1285,0.1375,0.1459,0.1597,0.1714,0.1969,0.2071,0.2191,0.2301,0.2246,0.2111,0.1967,0.1919,0.1724,0.1691,0.1554,0.151,0.1515,0.151,0.1538,0.1533,0.153,0.1527,0,0.104,0.1065,0.1132,0.1225,0.1304,0.1414,0.1542,0.1633,0.1835,0.1997,0.2219,0.2321,0.2278,0.2134,0.1921,0.1804,0.1648,0.1644,0.1584,0.1358,0.1288,0.1248,0.1504,0.1495,0.1499,0.1501,0.1503,0.1504,0.1025,0.1065,0.1146,0.1237,0.1332,0.1469,0.1564,0.1732,0.1928,0.2181,0.2274,0.2383,0.2138,0.1864,0.1711,0.1316,0.1447,0.1179,0.1192,0.1222,0.1192,0.1343,0.1244,0.1246,0.1247,0.1248,0.1249,0,0.1021,0.1083,0.1164,0.1289,0.1391,0.1449,0.1645,0.1753,0.1986,0.2166,0.2333,0.2166,0.1873,0.1565,0.1084,0.0892,0.0876,0.0802,0.0794,0.0829,0.1008,0.0972,0.0712,0.0712,0.0712,0.0712,0.0713,0.0713,0.1028,0.1103,0.1161,0.1327,0.1413,0.1554,0.1669,0.1832,0.1965,0.2095,0.2075,0.208,0.1822,0.1103,0.0657,0.0575,0.0561,0.0474,0.0569,0.0665,0.0702,0.0737,0.07,0.0387,0.0387,0.0356,0.0355,0.0355]}],[{"header":{"parameterUnit":"m.s-1","parameterCategory":2,"la1":30.2991,"la2":30.254,"lo1":-89.0895,"lo2":-89.0444,"dy":0.0017,"dx":0.0017,"nx":28,"ny":28,"refTime":"2023-08-12T03:00:00:Z","depth":"2","parameterNumber":2,"parameterNumberName":"U-component_of_CURRENTS"},"data":[0,0,0,0,0,0,0,0,0,0,0,0,0,0,0,0,0,0,0,0,0,0,0,0,0,0,0,0,0,0,0,0,0,0,0,0,0,0,0,0,0,0,0,0,0,0,0,0,0,0,0,0,0,0,0,0,0,0,0.3034,0.3035,0,0.3169,0.317,0.3172,0.3338,0.3341,0.3343,0.3346,0.3524,0.3526,0.3528,0,0,0,0,0,0,0,0,0,0,0,0,0,0.2933,0.2934,0.3033,0.3035,0.3037,0.3169,0.317,0.3172,0.3337,0.3341,0.3344,0.3347,0.3523,0.3526,0.3528,0,0,0,0,0,0,0,0,0,0,0,0,0,0.3011,0.2934,0.3033,0.3137,0.3148,0.3168,0.317,0.3172,0.3337,0.3341,0.3345,0.3349,0.3522,0.3526,0.3529,0.3464,0,0,0.3538,0.354,0,0,0,0,0,0,0,0,0.3006,0.3014,0.312,0.313,0.3142,0.3243,0.32,0.3273,0.3335,0.3263,0.3346,0.3351,0.3432,0.3443,0.3455,0.3472,0.348,0.3539,0.3541,0.3542,0.3543,0,0,0,0,0,0,0,0.3001,0.301,0.3085,0.3122,0.3135,0.3182,0.3198,0.3215,0.3321,0.3269,0.3282,0.3299,0.3439,0.3452,0.3461,0.3483,0.3539,0.3541,0.3543,0.3545,0.3901,0.3908,0,0,0,0,0,0,0.2983,0.3004,0.3081,0.3089,0.3086,0.3181,0.3198,0.3204,0.3321,0.3343,0.3295,0.3307,0.3444,0.3457,0.3468,0.3723,0.3542,0.3545,0.3547,0.3893,0.3902,0.3911,0,0,0,0,0,0,0.298,0.2988,0.3075,0.3052,0.3067,0.3178,0.3184,0.3205,0.3313,0.334,0.3364,0.3393,0.3448,0.3463,0.3612,0.3719,0.3546,0.3549,0.3884,0.3896,0.3907,0.4025,0,0,0,0,0,0,0.2976,0.2985,0.3,0.305,0.3068,0.3187,0.3181,0.3205,0.3312,0.333,0.3429,0.3445,0.3453,0.3608,0.3615,0.372,0.3552,0.3875,0.389,0.3903,0.4011,0.4039,0.4062,0,0,0,0,0,0.2972,0.298,0.3,0.3011,0.3079,0.3192,0.3209,0.3297,0.3313,0.3401,0.3478,0.3447,0.3705,0.3615,0.3622,0.3731,0.3868,0.3885,0.3902,0.4,0.4033,0.4062,0,0,0,0,0,0,0.2933,0.2999,0.3022,0.3047,0.3157,0.3224,0.3275,0.3337,0.3457,0.3493,0.3507,0.3532,0.3717,0.3716,0.3617,0.3892,0.3794,0.3813,0.3867,0.3898,0.3923,0.3885,0.3554,0,0,0,0,0,0.2926,0.2976,0.3049,0.3091,0.3124,0.3209,0.3264,0.3359,0.3453,0.3514,0.3577,0.3669,0.3772,0.3831,0.3918,0.4024,0.3957,0.4121,0.4146,0.4167,0.4153,0.4148,0.4167,0.3966,0.3966,0.3966,0,0,0.293,0.2969,0.3001,0.3092,0.315,0.3256,0.3257,0.3395,0.353,0.3506,0.3694,0.3759,0.383,0.3991,0.4073,0.401,0.4199,0.4189,0.4204,0.4179,0.4167,0.4184,0.42,0.3978,0.3976,0.3974,0,0,0.2966,0.2985,0.3043,0.3133,0.3267,0.3341,0.3403,0.3532,0.3636,0.3829,0.3853,0.3979,0.4137,0.4189,0.4236,0.4448,0.4342,0.4515,0.4586,0.4583,0.4595,0.4606,0.4543,0.4547,0.4513,0.4513,0.4513,0,0.2992,0.3046,0.3091,0.3173,0.325,0.3388,0.3497,0.3625,0.3818,0.3847,0.3945,0.4143,0.4231,0.4337,0.4466,0.4496,0.4452,0.4444,0.4602,0.4612,0.462,0.4553,0.4555,0.4521,0.452,0.4519,0.4518,0,0.3069,0.3137,0.3177,0.3327,0.3421,0.3562,0.3713,0.3839,0.3981,0.4065,0.4248,0.4382,0.4465,0.4566,0.4604,0.4714,0.465,0.463,0.4488,0.4644,0.4568,0.4568,0.4532,0.4529,0.4527,0.4525,0,0,0.3141,0.3218,0.3255,0.3296,0.3524,0.3595,0.3793,0.3943,0.3996,0.4251,0.4305,0.4583,0.4596,0.4657,0.4711,0.4764,0.4837,0.475,0.4746,0.4622,0.4783,0.443,0.4394,0.4831,0.4832,0.4833,0.4699,0,0.3234,0.3327,0.3386,0.3549,0.361,0.3738,0.3873,0.4021,0.4165,0.4253,0.4403,0.4526,0.4651,0.4707,0.4788,0.4833,0.4845,0.4871,0.4707,0.4701,0.4313,0.4385,0.4153,0.3986,0.4698,0.4698,0.4698,0,0.3356,0.338,0.3493,0.3565,0.3598,0.3735,0.386,0.4012,0.4139,0.4229,0.4346,0.4434,0.4596,0.468,0.4797,0.4806,0.4812,0.4838,0.4831,0.4447,0.4346,0.3957,0.3958,0.4695,0.4696,0.4696,0.4696,0,0.3371,0.3486,0.3546,0.3598,0.3707,0.3766,0.3868,0.3994,0.4061,0.4204,0.4246,0.4396,0.4521,0.4585,0.4718,0.4752,0.4776,0.4791,0.4448,0.4421,0.4157,0.4101,0.4801,0.4801,0.4802,0.4802,0.4802,0,0.3462,0.3523,0.3545,0.3583,0.3626,0.374,0.382,0.3905,0.4022,0.4072,0.4237,0.4299,0.4522,0.4572,0.4645,0.4531,0.4703,0.4434,0.4358,0.4193,0.4145,0.4716,0.4708,0.4797,0.4798,0.4799,0.48,0,0.3467,0.3525,0.3552,0.3606,0.3639,0.3669,0.3784,0.3807,0.3959,0.4033,0.4088,0.4249,0.4289,0.4387,0.4468,0.4396,0.4338,0.4236,0.3993,0.3886,0.3995,0.3997,0.38,0.3786,0.3774,0.3765,0.3757,0,0.344,0.3455,0.35,0.3502,0.354,0.3603,0.364,0.3781,0.3813,0.399,0.3998,0.4067,0.4023,0.3936,0.3849,0.372,0.4003,0.3403,0.3402,0.3943,0.3892,0.3912,0.3929,0.3137,0.3124,0.3114,0.3106,0,0.3299,0.3349,0.3339,0.3363,0.3403,0.3427,0.3511,0.3517,0.3692,0.3761,0.3811,0.3772,0.3612,0.3341,0.3125,0.3062,0.3397,0.3168,0.383,0.3379,0.3293,0.3251,0.3295,0.3014,0.3023,0.303,0.3035,0.3039,0.3149,0.3117,0.3135,0.3175,0.322,0.3267,0.3262,0.331,0.3355,0.3372,0.3471,0.3289,0.3169,0.2626,0.2494,0.2407,0.2615,0.2581,0.2626,0.2679,0.2579,0.2471,0.2019,0.2023,0.2026,0.2028,0.203,0,0.2905,0.2951,0.2937,0.298,0.2997,0.3148,0.3163,0.3075,0.3059,0.303,0.2976,0.2543,0.2215,0.2141,0.1813,0.1671,0.1815,0.1654,0.1913,0.1998,0.2075,0.1961,0.1229,0.1227,0.1225,0.1223,0,0,0.2778,0.272,0.2766,0.2757,0.2868,0.2886,0.2917,0.2739,0.2626,0.2398,0.2262,0.2162,0.2088,0.1681,0.1554,0.1375,0.1721,0.1316,0.1957,0.2355,0.2433,0.2584,0.2492,0,0,0,0,0]},{"header":{"parameterUnit":"m.s-1","parameterCategory":2,"la1":30.2991,"la2":30.254,"lo1":-89.0895,"lo2":-89.0444,"dy":0.0017,"dx":0.0017,"nx":28,"ny":28,"refTime":"2023-08-12T03:00:00:Z","depth":"2","parameterNumber":3,"parameterNumberName":"V-component_of_CURRENTS"},"data":[0,0,0,0,0,0,0,0,0,0,0,0,0,0,0,0,0,0,0,0,0,0,0,0,0,0,0,0,0,0,0,0,0,0,0,0,0,0,0,0,0,0,0,0,0,0,0,0,0,0,0,0,0,0,0,0,0,0,-0.0208,-0.0208,0,-0.0077,-0.0073,-0.007,0.0043,0.0042,0.0041,0.004,0.0102,0.0105,0.0107,0,0,0,0,0,0,0,0,0,0,0,0,0,-0.0165,-0.0166,-0.0207,-0.0208,-0.0209,-0.0077,-0.0073,-0.0069,0.0043,0.0042,0.0041,0.004,0.0102,0.0105,0.0108,0,0,0,0,0,0,0,0,0,0,0,0,0,-0.0102,-0.0166,-0.0207,-0.0155,-0.015,-0.0078,-0.0073,-0.0068,0.0043,0.0042,0.004,0.0039,0.0101,0.0104,0.0108,0.0159,0,0,0.012,0.0121,0,0,0,0,0,0,0,0,-0.0106,-0.01,-0.0162,-0.0158,-0.0154,-0.0056,-0.0037,-0.0004,0.0043,-0.0005,0.004,0.0038,0.0028,0.0038,0.0101,0.0162,0.0165,0.012,0.0122,0.0124,0.0125,0,0,0,0,0,0,0,-0.011,-0.0105,-0.0131,-0.0163,-0.0158,-0.0073,-0.0064,-0.0026,0.0035,-0.0001,0.0002,-0.0021,0.0033,0.0097,0.0103,0.0166,0.012,0.0123,0.0126,0.0127,0.0259,0.026,0,0,0,0,0,0,-0.0184,-0.011,-0.0136,-0.013,-0.016,-0.0075,-0.0064,-0.0066,0.0037,0.0044,-0.002,-0.0017,0.0092,0.0098,0.0105,0.0203,0.0124,0.0127,0.013,0.0258,0.0259,0.0261,0,0,0,0,0,0,-0.0183,-0.0186,-0.0142,-0.0137,-0.0128,-0.0078,-0.0079,-0.0063,-0.0001,0.0018,0.0029,0.0022,0.0091,0.0099,0.0174,0.0203,0.0129,0.0133,0.0256,0.0258,0.026,0.0376,0,0,0,0,0,0,-0.0181,-0.0185,-0.0186,-0.0142,-0.0133,-0.0088,-0.0079,-0.0061,-0.0025,-0.0018,0.0058,0.0063,0.009,0.0169,0.0178,0.0207,0.0135,0.0255,0.0257,0.0259,0.037,0.0381,0.0391,0,0,0,0,0,-0.0179,-0.0188,-0.0186,-0.019,-0.0143,-0.0089,-0.007,-0.0024,-0.0022,0.0028,0.0086,0.0061,0.0187,0.0175,0.0185,0.0216,0.0254,0.0257,0.0259,0.0366,0.0379,0.0391,0,0,0,0,0,0,-0.0157,-0.0178,-0.0175,-0.0186,-0.0142,-0.0079,-0.006,-0.0022,0.0072,0.0073,0.0107,0.0119,0.0184,0.0182,0.0167,0.0254,0.0203,0.0208,0.0281,0.0293,0.0303,0.0311,0.0139,0,0,0,0,0,-0.0164,-0.0177,-0.0164,-0.0163,-0.0163,-0.0105,-0.0077,-0.0034,0.0026,0.0068,0.0122,0.0162,0.0207,0.0236,0.0274,0.0342,0.0299,0.0354,0.0364,0.0373,0.0384,0.0372,0.0382,0.027,0.027,0.027,0,0,-0.0156,-0.0175,-0.0177,-0.016,-0.0134,-0.0089,-0.0084,-0.0041,0.0036,0.0054,0.0176,0.0203,0.023,0.0314,0.0339,0.0318,0.0376,0.0377,0.0385,0.039,0.0376,0.0387,0.0397,0.0272,0.0271,0.0271,0,0,-0.015,-0.0168,-0.0173,-0.0144,-0.0127,-0.0075,-0.007,0.0007,0.0075,0.0195,0.0208,0.0259,0.0355,0.0385,0.0406,0.0486,0.0426,0.0481,0.0556,0.0546,0.0555,0.0563,0.0495,0.0496,0.0493,0.0493,0.0493,0,-0.0137,-0.0141,-0.0153,-0.0144,-0.0122,-0.0077,-0.0034,0.0053,0.0168,0.0219,0.0239,0.0382,0.039,0.0479,0.0513,0.051,0.048,0.0516,0.056,0.0567,0.0573,0.0502,0.0501,0.0499,0.0498,0.0498,0.0497,0,-0.0128,-0.0118,-0.0124,-0.0095,-0.0054,-0.0012,0.0063,0.015,0.0227,0.0304,0.0426,0.0493,0.0574,0.0573,0.0582,0.0632,0.0585,0.0571,0.0533,0.0592,0.0512,0.0509,0.0507,0.0505,0.0504,0.0502,0,0,-0.0133,-0.0116,-0.0116,-0.0081,-0.0024,0.0024,0.0127,0.0239,0.0317,0.045,0.0563,0.0654,0.0689,0.0714,0.0729,0.0726,0.0724,0.0682,0.0679,0.062,0.0669,0.0639,0.0632,0.0733,0.0734,0.0735,0.0586,0,-0.0112,-0.0072,-0.0069,0.0017,0.0053,0.0113,0.0216,0.0323,0.0428,0.0555,0.0631,0.0737,0.0747,0.0798,0.0813,0.0771,0.0729,0.0764,0.0616,0.061,0.0583,0.0633,0.0604,0.0472,0.0583,0.0582,0.0582,0,-0.0107,-0.0074,-0.0003,0.0089,0.0106,0.0175,0.0322,0.0425,0.057,0.0655,0.0776,0.0834,0.0916,0.0887,0.0872,0.0906,0.0789,0.0724,0.0716,0.0651,0.0578,0.0436,0.0462,0.0576,0.0577,0.0577,0.0578,0,-0.0087,-0.0027,0.0042,0.0069,0.018,0.0235,0.0316,0.045,0.056,0.0713,0.0814,0.0913,0.1009,0.0933,0.088,0.0864,0.081,0.0754,0.0592,0.0585,0.0512,0.0498,0.0655,0.0655,0.0656,0.0656,0.0657,0,-0.0061,-0.0011,0.0057,0.0099,0.0205,0.0264,0.0398,0.0493,0.0644,0.0807,0.0879,0.1044,0.103,0.1037,0.0904,0.0795,0.0834,0.0611,0.0565,0.0547,0.0539,0.0597,0.0593,0.0651,0.0652,0.0653,0.0654,0,-0.0045,-0.0006,0.0072,0.0176,0.0215,0.0295,0.0445,0.0557,0.069,0.0909,0.0971,0.1146,0.1175,0.1094,0.0967,0.0847,0.0696,0.0601,0.0567,0.0522,0.0441,0.0444,0.039,0.0388,0.0386,0.0385,0.0384,0,-0.0022,0.0021,0.0119,0.0173,0.0218,0.0335,0.0438,0.0579,0.0715,0.1008,0.1134,0.1226,0.1339,0.1159,0.0916,0.0642,0.0655,0.0432,0.0387,0.0464,0.0424,0.0429,0.0434,0.0301,0.0299,0.0298,0.0297,0,0.0038,0.0057,0.0124,0.0219,0.0314,0.044,0.0596,0.0714,0.0944,0.1149,0.1434,0.1521,0.136,0.1146,0.0773,0.0593,0.0491,0.0392,0.0508,0.0396,0.0375,0.0338,0.0346,0.0285,0.0286,0.0287,0.0287,0.0288,0.0082,0.0127,0.0204,0.0298,0.0401,0.0571,0.0712,0.0919,0.1183,0.1493,0.1557,0.1647,0.1388,0.0879,0.0636,0.0355,0.0336,0.0226,0.0232,0.0239,0.0279,0.0261,0.015,0.015,0.0151,0.0151,0.0151,0,0.0162,0.0204,0.029,0.0419,0.0541,0.0588,0.0847,0.1014,0.1361,0.1529,0.1713,0.1431,0.1163,0.0878,0.0402,0.0142,0.0135,0.0115,0.0152,0.0163,0.0173,0.0213,0.0064,0.0064,0.0064,0.0064,0,0,0.0212,0.0307,0.0352,0.0547,0.0627,0.0831,0.0995,0.1247,0.1401,0.159,0.1592,0.1507,0.1159,0.082,0.0502,0.0281,0.029,0.0247,0.0326,0.0414,0.0428,0.0227,0.0299,0,0,0,0,0]}],[{"header":{"parameterUnit":"m.s-1","parameterCategory":2,"la1":30.2991,"la2":30.254,"lo1":-89.0895,"lo2":-89.0444,"dy":0.0017,"dx":0.0017,"nx":28,"ny":28,"refTime":"2023-08-12T03:00:00:Z","depth":"4","parameterNumber":2,"parameterNumberName":"U-component_of_CURRENTS"},"data":[0,0,0,0,0,0,0,0,0,0,0,0,0,0,0,0,0,0,0,0,0,0,0,0,0,0,0,0,0,0,0,0,0,0,0,0,0,0,0,0,0,0,0,0,0,0,0,0,0,0,0,0,0,0,0,0,0,0,0.0516,0.0516,0,0.0649,0.0652,0.0655,0.0787,0.0787,0.0787,0.0788,0.077,0.077,0.0769,0,0,0,0,0,0,0,0,0,0,0,0,0,0.0547,0.0546,0.0516,0.0516,0.0517,0.0649,0.0652,0.0655,0.0787,0.0787,0.0787,0.0788,0.0771,0.077,0.0769,0,0,0,0,0,0,0,0,0,0,0,0,0,0.0606,0.0545,0.0516,0.0587,0.0594,0.0648,0.0652,0.0656,0.0787,0.0787,0.0788,0.0788,0.0771,0.077,0.0769,0.075,0,0,0.0765,0.0764,0,0,0,0,0,0,0,0,0.0602,0.0606,0.0576,0.0582,0.0589,0.0689,0.0656,0.0675,0.0786,0.0729,0.0788,0.0788,0.0719,0.0722,0.077,0.075,0.0749,0.0765,0.0764,0.0764,0.0763,0,0,0,0,0,0,0,0.0598,0.0602,0.0584,0.0576,0.0584,0.067,0.0679,0.0663,0.0728,0.0734,0.074,0.0731,0.0724,0.0771,0.0769,0.0749,0.0765,0.0764,0.0763,0.0763,0.0791,0.0792,0,0,0,0,0,0,0.0541,0.0597,0.058,0.0587,0.058,0.0667,0.0678,0.0669,0.0732,0.0739,0.073,0.0736,0.0772,0.0771,0.0769,0.0768,0.0764,0.0763,0.0762,0.079,0.0791,0.0793,0,0,0,0,0,0,0.0541,0.0538,0.0574,0.0584,0.0592,0.0663,0.0653,0.0671,0.0728,0.0728,0.0735,0.0769,0.0773,0.077,0.0793,0.0767,0.0762,0.0761,0.0788,0.079,0.0792,0.0754,0,0,0,0,0,0,0.0542,0.0538,0.0533,0.0579,0.0589,0.0597,0.0652,0.0672,0.0713,0.0724,0.0761,0.0762,0.0773,0.0795,0.0792,0.0765,0.076,0.0786,0.0789,0.0791,0.0753,0.0754,0.0755,0,0,0,0,0,0.0543,0.0507,0.0532,0.053,0.0572,0.0595,0.0611,0.0674,0.0714,0.0733,0.0787,0.0761,0.081,0.0796,0.0791,0.0763,0.0785,0.0788,0.0791,0.0753,0.0754,0.0755,0,0,0,0,0,0,0.0519,0.0517,0.0546,0.0515,0.0551,0.0611,0.0623,0.0674,0.074,0.0749,0.0779,0.0782,0.0788,0.0797,0.078,0.0789,0.0792,0.0794,0.0764,0.0765,0.0766,0.0872,0.0759,0,0,0,0,0,0.0506,0.0483,0.051,0.0491,0.05,0.0572,0.0595,0.0636,0.0683,0.0717,0.0746,0.0779,0.0799,0.08,0.0814,0.0811,0.0835,0.0797,0.0798,0.0798,0.0887,0.0938,0.0951,0.0804,0.0804,0.0804,0,0,0.0494,0.0485,0.0478,0.0485,0.0523,0.0544,0.0592,0.0611,0.0644,0.0693,0.0747,0.0773,0.0803,0.0815,0.0816,0.0816,0.0825,0.0802,0.0802,0.0893,0.0943,0.0957,0.097,0.0806,0.0806,0.0805,0,0,0.0445,0.0448,0.0422,0.045,0.0474,0.0516,0.0518,0.058,0.0623,0.0674,0.0718,0.0771,0.0781,0.0827,0.0843,0.0865,0.0829,0.0825,0.091,0.0953,0.0966,0.0979,0.0899,0.0906,0.0825,0.0825,0.0825,0,0.0432,0.0414,0.0423,0.0419,0.0445,0.05,0.0515,0.0558,0.0628,0.0677,0.0681,0.0813,0.0809,0.0879,0.0904,0.0866,0.0855,0.0883,0.0954,0.0968,0.0981,0.0899,0.0906,0.0824,0.0824,0.0824,0.0824,0,0.0372,0.0388,0.0373,0.0394,0.042,0.0435,0.0482,0.0537,0.0596,0.0658,0.0751,0.0807,0.0925,0.0878,0.0907,0.0991,0.0931,0.0938,0.0944,0.0994,0.0902,0.091,0.0821,0.0822,0.0822,0.0823,0,0,0.029,0.0326,0.0332,0.0369,0.0417,0.0434,0.0488,0.057,0.0663,0.0718,0.0855,0.0902,0.0997,0.1035,0.1053,0.1092,0.1112,0.1075,0.1078,0.0987,0.1126,0.1009,0.1005,0.1126,0.1131,0.1134,0.0975,0,0.0265,0.0262,0.0287,0.0335,0.0361,0.0445,0.0505,0.0587,0.069,0.0829,0.0908,0.1038,0.1025,0.1121,0.1161,0.117,0.1157,0.1151,0.1109,0.1107,0.0992,0.1023,0.1148,0.0981,0.0983,0.0984,0.0985,0,0.0219,0.0234,0.0263,0.0361,0.0379,0.0427,0.0589,0.0668,0.0853,0.0946,0.1115,0.1197,0.1326,0.1307,0.1342,0.134,0.1268,0.1221,0.1213,0.1165,0.1015,0.0959,0.1,0.0999,0.0998,0.0997,0.0996,0,0.0186,0.023,0.026,0.0288,0.0391,0.0458,0.0554,0.0726,0.0826,0.1094,0.1197,0.1355,0.145,0.1461,0.1383,0.1396,0.1347,0.1335,0.1122,0.1105,0.1269,0.126,0.1346,0.1346,0.1346,0.1347,0.1347,0,0.0164,0.0196,0.0263,0.0295,0.038,0.0474,0.0645,0.0771,0.0983,0.1105,0.1301,0.1387,0.1509,0.1482,0.1418,0.1281,0.1364,0.1177,0.1104,0.1233,0.1223,0.1265,0.1258,0.1341,0.1342,0.1343,0.1344,0,0.0137,0.0175,0.0228,0.0332,0.0379,0.0467,0.0681,0.0793,0.1011,0.1195,0.1287,0.1427,0.1421,0.1399,0.1363,0.1284,0.1188,0.108,0.1138,0.1063,0.0895,0.0888,0.0908,0.0904,0.09,0.0897,0.0894,0,0.0115,0.0139,0.0246,0.029,0.035,0.0509,0.0602,0.0817,0.0925,0.1162,0.1192,0.1277,0.1339,0.1186,0.117,0.1029,0.0985,0.092,0.1037,0.0947,0.0873,0.0871,0.0869,0.0888,0.0887,0.0886,0.0885,0,0.0077,0.0121,0.0161,0.0267,0.0352,0.0463,0.0614,0.0679,0.0911,0.1065,0.116,0.12,0.1144,0.1124,0.0996,0.0887,0.1013,0.0882,0.0891,0.1001,0.0923,0.0853,0.0855,0.0873,0.0874,0.0876,0.0876,0,0.005,0.0063,0.0129,0.0225,0.0315,0.0391,0.0498,0.0614,0.0752,0.0999,0.0985,0.1059,0.1142,0.103,0.0899,0.0826,0.0833,0.0836,0.0848,0.0861,0.092,0.0819,0.071,0,0,0,0,0,0.0028,0.004,0.0085,0.0185,0.0268,0.0334,0.0464,0.0564,0.0746,0.0799,0.0932,0.0903,0.0875,0.0862,0.0767,0.0767,0.0754,0.0646,0.0747,0.0802,0.0816,0.0888,0,0,0,0,0,0,0.0015,0.0042,0.0054,0.0125,0.0188,0.0279,0.0357,0.0469,0.0533,0.072,0.0692,0.0847,0.0776,0.0919,0.0754,0.0739,0.0783,0.0674,0.0671,0.0793,0.0807,0.0818,0.0898,0,0,0,0,0]},{"header":{"parameterUnit":"m.s-1","parameterCategory":2,"la1":30.2991,"la2":30.254,"lo1":-89.0895,"lo2":-89.0444,"dy":0.0017,"dx":0.0017,"nx":28,"ny":28,"refTime":"2023-08-12T03:00:00:Z","depth":"4","parameterNumber":3,"parameterNumberName":"V-component_of_CURRENTS"},"data":[0,0,0,0,0,0,0,0,0,0,0,0,0,0,0,0,0,0,0,0,0,0,0,0,0,0,0,0,0,0,0,0,0,0,0,0,0,0,0,0,0,0,0,0,0,0,0,0,0,0,0,0,0,0,0,0,0,0,0.0218,0.0218,0,0.0181,0.018,0.0179,0.0119,0.0118,0.0118,0.0117,0.0115,0.0116,0.0116,0,0,0,0,0,0,0,0,0,0,0,0,0,0.0151,0.0152,0.0218,0.0218,0.0218,0.0181,0.018,0.0179,0.0119,0.0118,0.0118,0.0117,0.0115,0.0116,0.0116,0,0,0,0,0,0,0,0,0,0,0,0,0,0.0148,0.0153,0.0218,0.0188,0.0185,0.0181,0.018,0.0178,0.0119,0.0118,0.0117,0.0117,0.0115,0.0116,0.0116,0.0137,0,0,0.0118,0.0119,0,0,0,0,0,0,0,0,0.0148,0.015,0.0192,0.019,0.0187,0.0159,0.0156,0.0169,0.0119,0.0138,0.0117,0.0116,0.0138,0.0136,0.0122,0.0137,0.0137,0.0119,0.0119,0.0119,0.0119,0,0,0,0,0,0,0,0.0149,0.0151,0.0197,0.0192,0.0189,0.0147,0.0146,0.0157,0.0139,0.0136,0.0133,0.0139,0.0135,0.0122,0.0122,0.0137,0.0119,0.0119,0.012,0.012,0.0103,0.0102,0,0,0,0,0,0,0.0171,0.0152,0.0198,0.0196,0.0172,0.015,0.0148,0.0164,0.0138,0.0135,0.014,0.0136,0.0121,0.0121,0.0122,0.0132,0.0119,0.012,0.012,0.0104,0.0103,0.0102,0,0,0,0,0,0,0.017,0.0176,0.02,0.0177,0.0178,0.0154,0.017,0.0164,0.0159,0.0141,0.0137,0.0143,0.012,0.0121,0.0128,0.0133,0.012,0.0121,0.0105,0.0104,0.0102,0.0163,0,0,0,0,0,0,0.0168,0.0176,0.0194,0.0179,0.018,0.0213,0.0172,0.0164,0.0166,0.0161,0.0144,0.0141,0.012,0.0127,0.0129,0.0133,0.0121,0.0106,0.0104,0.0103,0.0162,0.0164,0.0165,0,0,0,0,0,0.0166,0.0212,0.0195,0.0201,0.0206,0.0215,0.0211,0.0185,0.0167,0.0175,0.015,0.0142,0.0116,0.0128,0.013,0.0135,0.0107,0.0105,0.0103,0.0161,0.0163,0.0165,0,0,0,0,0,0,0.0201,0.021,0.0191,0.0238,0.0229,0.0207,0.0223,0.0199,0.0184,0.0186,0.0152,0.0149,0.0147,0.0133,0.0146,0.0118,0.0103,0.0101,0.0146,0.0148,0.015,0.0167,0.0122,0,0,0,0,0,0.0216,0.0245,0.0237,0.0272,0.0275,0.0247,0.0248,0.0233,0.022,0.0212,0.0198,0.017,0.0139,0.014,0.0119,0.013,0.0086,0.0123,0.0125,0.0127,0.0137,0.0044,0.0039,0.0096,0.0096,0.0096,0,0,0.0235,0.0248,0.0261,0.0279,0.0271,0.0287,0.0245,0.0265,0.0271,0.0219,0.0232,0.0188,0.0141,0.0131,0.0129,0.0125,0.009,0.0124,0.0127,0.0136,0.0041,0.0036,0.0031,0.0094,0.0095,0.0095,0,0,0.0286,0.0305,0.0334,0.034,0.0348,0.0335,0.0346,0.0335,0.0324,0.0336,0.0271,0.0225,0.0226,0.016,0.0131,0.0133,0.0099,0.013,0.0166,0.0075,0.007,0.0065,0.0021,0.0012,0.0135,0.0136,0.0136,0,0.0305,0.0348,0.0343,0.0374,0.0389,0.0362,0.039,0.0382,0.0371,0.0354,0.0358,0.0265,0.0231,0.016,0.0155,0.0139,0.0101,0.0169,0.0079,0.0073,0.0066,0.0023,0.0012,0.0138,0.0138,0.0138,0.0137,0,0.0362,0.0403,0.0432,0.0455,0.0464,0.0501,0.0488,0.0492,0.0484,0.0451,0.0403,0.0336,0.0277,0.0243,0.0213,0.0136,0.013,0.009,0.0081,0.0065,0.0019,0.0007,0.0142,0.0141,0.014,0.014,0,0,0.0408,0.0457,0.0474,0.0487,0.0519,0.0529,0.0553,0.054,0.0535,0.0508,0.0473,0.0396,0.0345,0.0307,0.0234,0.0154,0.0081,0.0123,0.0116,0.0095,-0.0082,-0.0037,-0.0047,0.0028,0.0026,0.0024,-0.0087,0,0.0455,0.0525,0.0537,0.0595,0.0626,0.0618,0.0634,0.0615,0.0597,0.0562,0.0461,0.0421,0.0374,0.0347,0.0256,0.0111,0.0048,0.0118,-0.0075,-0.008,-0.0028,-0.0061,0.0016,-0.0097,-0.01,-0.0102,-0.0104,0,0.0516,0.0553,0.0622,0.0654,0.0665,0.0703,0.0709,0.0732,0.0672,0.0645,0.0576,0.0498,0.0379,0.0348,0.0125,0.0177,0.0073,-0.0035,-0.0043,-0.003,-0.006,-0.0087,-0.0127,-0.0126,-0.0124,-0.0122,-0.0121,0,0.055,0.0616,0.0671,0.0692,0.0723,0.0755,0.0792,0.0768,0.0771,0.0723,0.068,0.0541,0.0454,0.0306,0.011,0.0121,-0.0142,-0.0164,-0.022,-0.0217,-0.0248,-0.0242,-0.0308,-0.0308,-0.0307,-0.0307,-0.0307,0,0.0606,0.0651,0.0705,0.0741,0.08,0.0825,0.09,0.0882,0.0867,0.0828,0.075,0.0637,0.0434,0.0255,0.0114,-0.0087,-0.0135,-0.0211,-0.0252,-0.0217,-0.0207,-0.0256,-0.0248,-0.0311,-0.031,-0.031,-0.0309,0,0.0635,0.0674,0.0732,0.0793,0.0828,0.0888,0.0994,0.1002,0.1004,0.0946,0.0929,0.0693,0.0464,0.0271,-0.0013,-0.0092,-0.0276,-0.0332,-0.025,-0.0286,-0.0281,-0.027,-0.0388,-0.0388,-0.0387,-0.0387,-0.0387,0,0.0649,0.0688,0.078,0.0814,0.0861,0.0982,0.1027,0.1077,0.1054,0.0943,0.084,0.064,0.0477,0.0127,-0.0071,-0.0288,-0.0323,-0.0367,-0.0337,-0.0266,-0.0295,-0.0283,-0.0272,-0.0386,-0.0386,-0.0386,-0.0386,0,0.0636,0.068,0.0715,0.0834,0.0899,0.0969,0.1037,0.1017,0.1012,0.101,0.0782,0.0622,0.0345,0.0094,-0.0059,-0.0233,-0.0306,-0.0364,-0.0366,-0.0338,-0.0265,-0.0291,-0.0281,-0.0384,-0.0385,-0.0385,-0.0385,0,0.0615,0.0637,0.0709,0.08,0.0879,0.0889,0.0958,0.0919,0.0925,0.0803,0.0713,0.0483,0.0353,0.0114,-0.0058,-0.0179,-0.0207,-0.0207,-0.0218,-0.0221,-0.013,-0.001,-0.0088,0,0,0,0,0,0.0578,0.06,0.0665,0.074,0.082,0.0881,0.0888,0.0925,0.0917,0.0769,0.077,0.0539,0.0291,0.0127,0.0011,-0.0081,-0.0251,-0.0217,-0.0261,-0.0377,-0.0379,-0.0296,0,0,0,0,0,0,0.0548,0.0599,0.0634,0.0671,0.0732,0.08,0.0807,0.0792,0.0719,0.0702,0.0543,0.0566,0.028,0.0374,0.0027,-0.0017,-0.0047,-0.0317,-0.0318,-0.0377,-0.0378,-0.0379,-0.0294,0,0,0,0,0]}]]